OPS 4682 DEB, 14515

Orbit data source: Space-Track

OPS 4682 DEB, 14515 is space debris in LEO originally from a launch on Sat, 03 Apr 1965 UTC launched from the Air Force Western Test Range (AFWTR). Debris objects in space refer to the collection of defunct objects orbiting the Earth. Examples of debris include non-operational satellites, rocket bodies, and fragments generated from explosions, collisions, or faulty payload assembly.

Loading next visibility...
Identifier
14515, 1965-027M
Orbit
LEO
Country
Flag of USUS
Related business
Manufacturer
Unknown
Mission
Spacecraft
Bus & Motor
Unknown
Mass
Unknown
Launch date (UTC)
1965-04-03 (61 years ago)
Launch vehicle
Unknown
Launch site
Air Force Western Test Range (AFWTR)
Object type
Payload
Rocket body
Debris
Shape & HBR
Unknown shape, 0.1 m
Radar Cross Section
Medium (>0.1 m² and <1 m²)

Expand to show TLE details & history
Last TLE update: 1 day ago

TLE from 1 day ago
0 OPS 4682 DEB
1 14515U 65027M   26174.29776727  .00000620  00000-0  21083-2 0  9997
2 14515  90.2438   8.2437 0030966  51.6449 308.7447 12.97399109585103
Epoch: 2026-06-23T07:08Z
TLE epoch observation values (Epoch: 2026-06-23T07:08:47.092Z)
Latitude
-0°
Longitude
-10.42386°
Altitude
1,260.389 km
Speed
7.232 km/s
True Right ascension
00h 32m 58s
True Declination
0° 00' 00"
Sunlit
Object was in daylight at epoch
Visualization orbit readout
Latitude
Unknown
Longitude
Unknown
Altitude
Unknown
Speed
Unknown
Apparent Right ascension
Unknown
Apparent Declination
Unknown
Sunlit
N/A
Visualization observer readout
Local Sidereal Time
19:25:57
Azimuth
Unknown
Elevation
Unknown
Doppler factor
Unknown
Orbital elements
Apogee altitude
1,293.106 km
Perigee altitude
1,245.743 km
Semi-major axis
7,647.562 km
Eccentricity
0.0031
Inclination
90.2438°
RAAN
8.2437°
Arg. of periapsis
51.6449°
True anomaly
308.46727°
Mean anomaly
308.7447°
Eccentric anomaly
308.60605°
Mean motion
3.24533 °/min
Orbital period
110.93 mins
BSTAR
0.0021083
Loading maneuver chart data...
Computing Atmospheric mass density...
Loading historical data...
Loading historical data...
Loading historical data...
Loading historical data...
Loading historical data...
Loading historical data...
Loading historical data...

Documentation

Showing up to 5 results
|